Location: ?p Thanh B�nh
(16.5833°N, 107.5333°E)
Time: 04:22:18
(UTC+00:00)

Cosmos 1023 Rocket - Pass Details

Date: 29 October 2020
Orbit: 736 x 773 km, 74.1° (Epoch: 27 November)

Event Time Altitude Azimuth Distance (km) Brightness Sun altitude
Rises 21:48:10 0° 200° (SSW) 3,172 7.6 -14.6°
Reaches altitude 10° 21:50:33 10° 204° (SSW) 2,245 6.8 -14.0°
Maximum altitude 21:55:34 61° 284° (WNW) 836 4.4 -12.8°
Drops below altitude 10° 22:00:33 10° 4° (N) 2,236 6.8 -11.6°
Sets 22:02:56 0° 8° (N) 3,158 7.7 -11.1°
